Location: Vihti�l�
(61.3833°N, 23.0667°E)
Time: 04:44:15
(UTC+00:00)

Cosmos 1408 Rocket - Pass Details

Date: 29 November 2020
Orbit: 600 x 631 km, 82.6° (Epoch: 19 January)

Event Time Altitude Azimuth Distance (km) Brightness Sun altitude
Rises 05:00:28 0° 222° (SW) 2,920 6.8 -13.7°
Reaches altitude 10° 05:02:52 10° 231° (SW) 2,014 5.9 -13.4°
Maximum altitude 05:06:58 35° 298° (WNW) 1,025 4.1 -13.0°
Drops below altitude 10° 05:11:05 10° 5° (N) 2,014 6.0 -12.5°
Sets 05:13:29 0° 14° (NNE) 2,920 6.9 -12.2°
